• In Hungary
  • List of Countries
  • For 7 days
  • Water Temperature
  • Satellite Maps
  • Weather Map
  • News
  • Weather Widgets
  • user-avatar
    Login

    Hourly Weather Nova Kakhovka

    Today, 16 November, Friday

    Time Temperature Precipitation Wind Pressure Humidity
    00:00 -1°C° 0.2 mm 8 mps 766 mmHg 68%
    01:00 -1°C° 0.2 mm 8 mps 766 mmHg 69%
    02:00 -1°C° 0 mm 8 mps 766 mmHg 69%
    03:00 -1°C° 0.1 mm 8 mps 766 mmHg 70%
    04:00 -1°C° 0.1 mm 8 mps 766 mmHg 71%
    05:00 -1°C° 0.1 mm 8 mps 766 mmHg 73%
    06:00 -1°C° 0.2 mm 9 mps 766 mmHg 74%
    07:00 -1°C° 0.2 mm 9 mps 766 mmHg 75%
    08:00 -1°C° 0.2 mm 9 mps 766 mmHg 76%
    09:00 -1°C° 0.1 mm 9 mps 767 mmHg 76%
    10:00 0°C° 0.1 mm 9 mps 767 mmHg 76%
    11:00 0°C° 0.1 mm 9 mps 767 mmHg 76%
    12:00 0°C° 0.1 mm 9 mps 767 mmHg 76%
    13:00 0°C° 0.1 mm 9 mps 767 mmHg 77%
    14:00 0°C° 0.1 mm 9 mps 767 mmHg 78%
    15:00 0°C° 0.2 mm 9 mps 768 mmHg 79%
    16:00 0°C° 0.2 mm 9 mps 768 mmHg 80%
    17:00 0°C° 0.2 mm 9 mps 768 mmHg 81%
    18:00 0°C° 0.2 mm 9 mps 768 mmHg 81%
    19:00 0°C° 0.2 mm 9 mps 769 mmHg 82%
    20:00 -1°C° 0.2 mm 9 mps 769 mmHg 82%
    21:00 -1°C° 0 mm 9 mps 769 mmHg 82%
    22:00 -1°C° 0 mm 8 mps 769 mmHg 82%
    23:00 -1°C° 0 mm 8 mps 769 mmHg 82%

    Tomorrow, 17 November, Saturday

    Time Temperature Precipitation Wind Pressure Humidity
    00:00 -1°C° 0 mm 8 mps 770 mmHg 82%
    01:00 -1°C° 0 mm 8 mps 770 mmHg 82%
    02:00 -1°C° 0 mm 7 mps 770 mmHg 82%
    03:00 -1°C° 0 mm 7 mps 770 mmHg 82%
    04:00 -1°C° 0 mm 7 mps 770 mmHg 83%
    05:00 -2°C° 0 mm 6 mps 771 mmHg 83%
    06:00 -1°C° 0 mm 6 mps 771 mmHg 83%
    07:00 -1°C° 0 mm 6 mps 771 mmHg 82%
    08:00 -1°C° 0 mm 6 mps 771 mmHg 82%
    09:00 -1°C° 0 mm 6 mps 771 mmHg 80%
    10:00 +1°C° 0 mm 6 mps 771 mmHg 78%
    11:00 +1°C° 0 mm 6 mps 772 mmHg 76%
    12:00 +2°C° 0 mm 6 mps 771 mmHg 74%
    13:00 +2°C° 0 mm 5 mps 771 mmHg 73%
    14:00 +2°C° 0 mm 5 mps 771 mmHg 72%
    15:00 +1°C° 0 mm 5 mps 771 mmHg 76%
    16:00 0°C° 0 mm 4 mps 771 mmHg 79%
    17:00 +1°C° 0 mm 3 mps 771 mmHg 83%
    18:00 0°C° 0 mm 3 mps 771 mmHg 83%
    19:00 0°C° 0 mm 3 mps 771 mmHg 84%
    20:00 0°C° 0 mm 3 mps 771 mmHg 84%
    21:00 0°C° 0 mm 3 mps 771 mmHg 84%
    22:00 -1°C° 0 mm 3 mps 771 mmHg 84%
    23:00 -1°C° 0 mm 3 mps 770 mmHg 84%

    Day after tomorrow, 18 November, Sunday

    Time Temperature Precipitation Wind Pressure Humidity
    00:00 -1°C° 0 mm 3 mps 770 mmHg 84%
    01:00 -2°C° 0 mm 2 mps 770 mmHg 84%
    02:00 -2°C° 0 mm 2 mps 769 mmHg 83%
    03:00 -2°C° 0 mm 2 mps 769 mmHg 82%
    04:00 -2°C° 0 mm 2 mps 769 mmHg 81%
    05:00 -3°C° 0 mm 2 mps 768 mmHg 80%
    06:00 -2°C° 0 mm 2 mps 768 mmHg 77%
    07:00 -2°C° 0 mm 2 mps 768 mmHg 74%
    08:00 -2°C° 0 mm 2 mps 768 mmHg 71%
    09:00 +1°C° 0 mm 1 mps 768 mmHg 66%
    10:00 +2°C° 0 mm 1 mps 767 mmHg 61%
    11:00 +4°C° 0 mm 1 mps 767 mmHg 56%
    12:00 +4°C° 0 mm 1 mps 766 mmHg 54%
    13:00 +5°C° 0 mm 1 mps 766 mmHg 53%
    14:00 +4°C° 0 mm 2 mps 766 mmHg 52%
    15:00 +4°C° 0 mm 1 mps 765 mmHg 55%
    16:00 +4°C° 0 mm 1 mps 765 mmHg 58%
    17:00 +3°C° 0 mm 1 mps 765 mmHg 60%
    18:00 +3°C° 0 mm 1 mps 765 mmHg 62%
    19:00 +1°C° 0 mm 0 mps 764 mmHg 63%
    20:00 +1°C° 0 mm 0 mps 764 mmHg 64%
    21:00 +1°C° 0 mm 0 mps 764 mmHg 65%
    22:00 0°C° 0 mm 0 mps 764 mmHg 67%
    23:00 0°C° 0 mm 0 mps 764 mmHg 68%

    19 November, Monday

    Time Temperature Precipitation Wind Pressure Humidity
    00:00 +1°C° 0 mm 1 mps 764 mmHg 69%
    01:00 +1°C° 0 mm 1 mps 763 mmHg 71%
    02:00 0°C° 0 mm 1 mps 763 mmHg 72%
    03:00 -2°C° 0 mm 2 mps 763 mmHg 74%
    04:00 -2°C° 0 mm 2 mps 763 mmHg 75%
    05:00 -2°C° 0 mm 3 mps 763 mmHg 77%
    06:00 -2°C° 0 mm 3 mps 763 mmHg 77%
    07:00 -1°C° 0 mm 3 mps 763 mmHg 77%
    08:00 -2°C° 0 mm 4 mps 763 mmHg 77%
    09:00 -1°C° 0 mm 4 mps 763 mmHg 76%
    10:00 +1°C° 0 mm 4 mps 763 mmHg 75%
    11:00 +3°C° 0 mm 4 mps 763 mmHg 73%
    12:00 +3°C° 0 mm 5 mps 762 mmHg 75%
    13:00 +3°C° 0 mm 5 mps 762 mmHg 77%
    14:00 +5°C° 0 mm 5 mps 762 mmHg 79%
    15:00 +4°C° 0.2 mm 6 mps 762 mmHg 81%
    16:00 +4°C° 0.2 mm 6 mps 762 mmHg 83%
    17:00 +3°C° 0.2 mm 6 mps 761 mmHg 86%
    18:00 +3°C° 0.4 mm 7 mps 761 mmHg 86%
    19:00 +3°C° 0.4 mm 7 mps 761 mmHg 86%
    20:00 +2°C° 0.4 mm 8 mps 761 mmHg 86%
    21:00 +4°C° 0.5 mm 8 mps 761 mmHg 87%
    22:00 +4°C° 0.5 mm 8 mps 761 mmHg 87%
    23:00 +4°C° 0.5 mm 8 mps 761 mmHg 87%

    20 November, Tuesday

    Time Temperature Precipitation Wind Pressure Humidity
    00:00 +4°C° 0.6 mm 7 mps 761 mmHg 88%
    01:00 +4°C° 0.6 mm 7 mps 761 mmHg 89%
    02:00 +4°C° 0.6 mm 7 mps 761 mmHg 89%
    03:00 +4°C° 0.4 mm 6 mps 761 mmHg 90%
    04:00 +5°C° 0.4 mm 5 mps 761 mmHg 90%
    05:00 +6°C° 0.4 mm 5 mps 761 mmHg 91%
    06:00 +6°C° 0.1 mm 5 mps 761 mmHg 91%
    07:00 +6°C° 0.1 mm 4 mps 761 mmHg 91%
    08:00 +6°C° 0.1 mm 4 mps 761 mmHg 91%
    09:00 +6°C° 0 mm 4 mps 761 mmHg 89%
    10:00 +8°C° 0 mm 3 mps 762 mmHg 87%
    11:00 +9°C° 0 mm 3 mps 762 mmHg 85%
    12:00 +9°C° 0 mm 3 mps 762 mmHg 84%
    13:00 +9°C° 0 mm 3 mps 762 mmHg 83%
    14:00 +10°C° 0 mm 3 mps 762 mmHg 82%
    15:00 +8°C° 0 mm 4 mps 762 mmHg 86%
    16:00 +8°C° 0 mm 4 mps 762 mmHg 89%
    17:00 +7°C° 0 mm 4 mps 762 mmHg 92%
    18:00 +7°C° 0 mm 4 mps 762 mmHg 92%
    19:00 +7°C° 0 mm 5 mps 761 mmHg 92%
    20:00 +7°C° 0 mm 5 mps 761 mmHg 93%
    21:00 +7°C° 0 mm 5 mps 761 mmHg 92%
    22:00 +8°C° 0 mm 5 mps 760 mmHg 92%
    23:00 +8°C° 0 mm 5 mps 760 mmHg 92%

    21 November, Wednesday

    Time Temperature Precipitation Wind Pressure Humidity
    00:00 +8°C° 0 mm 5 mps 760 mmHg 92%
    01:00 +8°C° 0 mm 6 mps 759 mmHg 91%
    02:00 +9°C° 0 mm 6 mps 758 mmHg 91%
    03:00 +9°C° 0.2 mm 6 mps 758 mmHg 91%
    04:00 +9°C° 0.2 mm 6 mps 758 mmHg 91%
    05:00 +10°C° 0.2 mm 6 mps 757 mmHg 90%
    06:00 +10°C° 0.5 mm 7 mps 757 mmHg 90%
    07:00 +11°C° 0.5 mm 7 mps 757 mmHg 89%
    08:00 +11°C° 0.5 mm 7 mps 756 mmHg 88%
    09:00 +12°C° 0.1 mm 7 mps 756 mmHg 81%
    10:00 +14°C° 0.1 mm 7 mps 756 mmHg 75%
    11:00 +15°C° 0.1 mm 7 mps 756 mmHg 69%
    12:00 +16°C° 0.1 mm 7 mps 755 mmHg 67%
    13:00 +16°C° 0.1 mm 6 mps 755 mmHg 65%
    14:00 +17°C° 0.1 mm 6 mps 754 mmHg 63%
    15:00 +16°C° 0.1 mm 5 mps 754 mmHg 67%
    16:00 +15°C° 0.1 mm 5 mps 754 mmHg 71%
    17:00 +14°C° 0.1 mm 5 mps 754 mmHg 76%
    18:00 +14°C° 0.1 mm 5 mps 754 mmHg 77%
    19:00 +14°C° 0.1 mm 5 mps 754 mmHg 78%
    20:00 +14°C° 0.1 mm 6 mps 754 mmHg 78%
    21:00 +13°C° 0 mm 6 mps 753 mmHg 79%
    22:00 +13°C° 0 mm 5 mps 753 mmHg 79%
    23:00 +13°C° 0 mm 5 mps 753 mmHg 79%
    Show more